Overview Statistics Trail Chart Weather Telemetry Raw packets
 

This is the latest recevied weather packets stored in our database for station/object KE7PGE-13. If no packets are shown the sender has not sent any weather packets the latest 10 day(s).

<< 2 3 4 5 6 >>
Time Temp. Humidity Pressure Rain* Wind** Luminosity Snow
1788099003 12.22° C 94% 1021.1 hPa 0 mm - - -
1788081004 12.22° C 90% 1020.7 hPa 0 mm - - -
1788073818 13.33° C 84% 1020.3 hPa 0 mm - - -
1788068404 13.89° C 87% 1020.2 hPa 0 mm - - -
1788066605 13.89° C 91% 1020.1 hPa 0 mm - - -
1788046805 19.44° C 75% 1019.1 hPa 0 mm - - -
1788021605 11.67° C 96% 1017.3 hPa 2.54 mm - - -
1788018005 11.67° C 96% 1017.6 hPa 11.18 mm - - -
1788009006 12.22° C 94% 1016.5 hPa 0 mm - - -
1787996405 13.33° C 88% 1016.9 hPa 0 mm - - -
1787994604 13.89° C 87% 1017 hPa 0 mm - - -
1787989204 14.44° C 83% 1016.8 hPa 0 mm - - -
1787978404 16.67° C 76% 1016.7 hPa 0 mm - - -
1787976604 17.22° C 74% 1016.3 hPa 0 mm - - -
1787969404 20° C 66% 1016.2 hPa 0 mm - - -
1787962205 20° C 66% 1016.8 hPa 0 mm - - -
1787960404 20.56° C 69% 1017.2 hPa 0 mm - - -
1787942404 17.78° C 78% 1018.8 hPa 0 mm - - -
1787940604 17.22° C 79% 1018.9 hPa 0 mm - - -
1787922604 14.44° C 87% 1018.7 hPa 0 mm - - -
1787904605 15.56° C 84% 1019.2 hPa 0 mm - - -
1787902804 15.56° C 83% 1019.4 hPa 0 mm - - -
1787895604 16.67° C 78% 1019.1 hPa 0 mm - - -
1787890209 18.33° C 73% 1018.6 hPa 0 mm - - -
1787886604 18.89° C 71% 1018.3 hPa 0 mm - - -

* Rain latest hour (hover to see other rain measurements)
** Current wind speed in m/s (hover to see current wind gust speed)